McComb, MS

11:12 PM CDT on June 24, 2017 (GMT -0500)
McComb-Pike County-Lewis

Weather History for KMCB - November, 2014

Change the Weather History Date:

Thursday, November 6, 2014

  Actual Average Record
Temperature  
Mean Temperature 62 °F -  
Max Temperature 71 °F 69 °F 84 °F (2003)
Min Temperature 53 °F 42 °F 27 °F (1991)
Degree Days  
Heating Degree Days 2    
Growing Degree Days 12 (Base 50)    
Moisture  
Dew Point 58 °F    
Average Humidity 81    
Maximum Humidity 97    
Minimum Humidity 41    
Precipitation  
Precipitation 0.01 in - - ()
Sea Level Pressure  
Sea Level Pressure 30.16 in    
Wind  
Wind Speed 5 mph (NNW)    
Max Wind Speed 15 mph    
Max Gust Speed -    
Visibility 8 miles    
Events Rain    
Averages and records for this station are not official NWS values.
T = Trace of Precipitation, MM = Missing Value Source: NWS Daily Summary

Daily Weather History Graph

Daily Weather History Graph

Search for Another Location

Airport or City:

Trip Planner

Search our weather history database for the weather conditions in past years. The results will help you decide how hot, cold, wet, or windy it might be!

Date:

Astronomy

Nov. 06, 2014 Rise Set
Actual Time 6:21 AM CST 5:09 PM CST
Civil Twilight 5:56 AM CST 5:34 PM CST
Nautical Twilight 5:27 AM CST 6:03 PM CST
Astronomical Twilight 4:58 AM CST 6:31 PM CST
Moon 5:15 PM CST (11/6) 5:55 AM CST (11/6)
Length of Visible Light 11h 38m
Length of Day
10h 47m
Full, 100% of the Moon is Illuminated
Nov 6
Full
Nov 6
Full
Nov 14
Last Quarter
Nov 22
New
Nov 29
First Quarter

Hourly Weather History & Observations

Time (CST) Temp. Dew Point Humidity Pressure Visibility Wind Dir Wind Speed Gust Speed Precip Events Conditions
12:53 AM 66.9 °F 64.9 °F 93% 30.15 in 8.0 mi Calm Calm - N/A   Overcast
1:37 AM 66.0 °F 64.0 °F 93% 30.16 in 9.0 mi North - - 0.00 in Rain Light Rain
1:53 AM 66.0 °F 64.0 °F 93% 30.15 in 6.0 mi Calm Calm - 0.00 in   Scattered Clouds
2:39 AM 64.9 °F 64.0 °F 97% 30.14 in 2.0 mi South 6.9 mph - 0.00 in   Mostly Cloudy
2:53 AM 64.9 °F 64.0 °F 97% 30.13 in 4.0 mi North - - 0.01 in   Mostly Cloudy
3:53 AM 66.0 °F 64.0 °F 93% 30.14 in 5.0 mi Calm Calm - 0.00 in   Scattered Clouds
4:40 AM 66.0 °F 64.0 °F 93% 30.16 in 4.0 mi NW 4.6 mph - 0.00 in   Overcast
4:53 AM 66.0 °F 64.9 °F 96% 30.14 in 5.0 mi Calm Calm - 0.00 in   Overcast
5:02 AM 66.0 °F 64.0 °F 93% 30.15 in 4.0 mi SSW 3.5 mph - N/A   Overcast
5:46 AM 66.0 °F 64.9 °F 96% 30.16 in 5.0 mi NW 4.6 mph - N/A   Overcast
5:53 AM 66.0 °F 64.9 °F 96% 30.15 in 5.0 mi NW 5.8 mph - N/A   Overcast
6:41 AM 66.0 °F 64.0 °F 93% 30.17 in 6.0 mi NW 5.8 mph - N/A   Overcast
6:53 AM 66.0 °F 64.0 °F 93% 30.17 in 6.0 mi NW 6.9 mph - N/A   Overcast
7:53 AM 66.9 °F 64.0 °F 90% 30.18 in 8.0 mi Variable 5.8 mph - N/A   Overcast
8:49 AM 68.0 °F 62.6 °F 83% 30.20 in 10.0 mi NNW 11.5 mph - N/A   Overcast
8:53 AM 68.0 °F 63.0 °F 84% 30.19 in 10.0 mi NNW 11.5 mph - N/A   Overcast
9:53 AM 66.9 °F 63.0 °F 87% 30.20 in 10.0 mi NNW 8.1 mph - N/A   Overcast
10:53 AM 66.9 °F 62.1 °F 84% 30.19 in 10.0 mi NNW 11.5 mph - N/A   Overcast
11:53 AM 64.9 °F 60.1 °F 84% 30.17 in 10.0 mi North 12.7 mph - N/A   Overcast
12:07 PM 66.9 °F 59.0 °F 76% 30.18 in 10.0 mi North 12.7 mph - N/A   Overcast
12:53 PM 68.0 °F 57.9 °F 70% 30.16 in 10.0 mi North 10.4 mph - N/A   Mostly Cloudy
1:53 PM 70.0 °F 52.0 °F 53% 30.14 in 10.0 mi NNW 10.4 mph - N/A   Partly Cloudy
2:53 PM 71.1 °F 46.0 °F 41% 30.13 in 10.0 mi NNW 15.0 mph - N/A   Clear
3:53 PM 68.0 °F 48.9 °F 50% 30.13 in 10.0 mi NW 8.1 mph - N/A   Clear
4:53 PM 64.9 °F 48.9 °F 56% 30.14 in 10.0 mi NNW 9.2 mph - N/A   Clear
5:53 PM 61.0 °F 51.1 °F 70% 30.15 in 10.0 mi NNW 9.2 mph - N/A   Clear
6:53 PM 59.0 °F 51.1 °F 75% 30.17 in 10.0 mi NNW 8.1 mph - N/A   Clear
7:53 PM 57.9 °F 50.0 °F 75% 30.17 in 10.0 mi NNW 6.9 mph - N/A   Clear
8:53 PM 57.0 °F 48.9 °F 74% 30.17 in 10.0 mi North 8.1 mph - N/A   Clear
9:53 PM 57.0 °F 45.0 °F 64% 30.18 in 10.0 mi North 8.1 mph - N/A   Clear
10:53 PM 54.0 °F 44.1 °F 69% 30.18 in 10.0 mi NNW 5.8 mph - N/A   Clear
11:53 PM 53.1 °F 43.0 °F 69% 30.17 in 10.0 mi NNW 6.9 mph - N/A   Clear